Weather in Riposto

Italy     37°42′17″N   15°11′59″E
temp.,
°C
wind,
m/s
gust,
m/s
humid.,
%
clouds,
%
prec.,
mm/h
press.,
hPa
HPBL,
m
26 october, tue
tue2623:00+17sse3393100 4.6 1015291
02:00+16nne5796100 12.8 1015401
05:00+18se4594100 14.9 1013396
08:00+18ese81190100 27.9 1014973
11:00+18ese5889100 8.9 1016690
14:00+17e5992100 20.4 1015676
17:00+18e5889100 5.4 1015624
20:00+17ene598698 10.2 1017731
27 october, wed
wed2723:00+17ne238786 0.8 1018407
02:00+17n1384100 1.1 1018344
05:00+17ne1285100 0.7 1018314
08:00+17e4786100 1.7 1019675
11:00+18e4677100 0.3 1020851
14:00+18e4675100 0.3 1019840
17:00+17e567694 0.1 1018593
20:00+17e5775100 0.1 1019618
28 october, thu
thu2823:00+17ene5874100 0.3 1019666
02:00+16ne4778100 2.1 1017583
05:00+16ne61285100 4.6 1014980
08:00+15ene81596100 32.9 10151056
11:00+17e101597100 29.6 10151091
14:00+18se5784100 41.9 1014725
17:00+18se5888100 6.0 1014729
20:00+17sse5889100 11.8 1014658
29 october, fri
fri2923:00+18sse6989100 4.3 1015752
02:00+18sse698899 8.6 1014701
05:00+17sse3491100 3.6 1014330
08:00+17nw1186100 4.5 101498
11:00+19ese117771 0.1 1015522
14:00+20ene1273100 0.4 1015462
17:00+18n4581100 3.1 1016287
20:00+17n4581100 4.8 1018220
30 october, sat
sat3023:00+17n4681100 0.1 1018209
02:00+16nnw4681100 0.1 1019199
05:00+16nnw3479100 0.0 1018148
08:00+16nnw347785 0.0 1019151
11:00+20ne226695 0.0 1020569
14:00+20e33685 0.0 1020695
17:00+18ene348355 1.8 1020302
20:00+17ne228541 3.4 1022148